| time (UTC) | temp C | wind direction | speed KPH | gust KPH | rain 1hr cm | rain 24hr cm | rain mn cm | humidity % | barometer mb |
| 20260504030431 | 3 | 161 | 0.0 | 0.0 | 0.00 | 0.00 | 0.00 | 78 | 1013.5 |
| 20260504025706 | 3 | 161 | 0.0 | 0.0 | 0.00 | 0.00 | 0.00 | 79 | 1013.5 |
| 20260504025432 | 4 | 161 | 0.0 | 0.0 | 0.00 | 0.00 | 0.00 | 78 | 1013.5 |
| 20260504024703 | 4 | 161 | 0.0 | 0.0 | 0.00 | 0.00 | 0.00 | 78 | 1013.5 |
| 20260504024204 | 4 | 161 | 0.0 | 0.0 | 0.00 | 0.00 | 0.00 | 77 | 1013.5 |
| 20260504023704 | 4 | 161 | 0.0 | 0.0 | 0.00 | 0.00 | 0.00 | 76 | 1013.6 |
| 20260504023204 | 4 | 161 | 0.0 | 0.0 | 0.00 | 0.00 | 0.00 | 76 | 1013.6 |
| 20260504022704 | 5 | 161 | 0.0 | 0.0 | 0.00 | 0.00 | 0.00 | 76 | 1013.6 |
| 20260504022204 | 5 | 161 | 0.0 | 0.0 | 0.00 | 0.00 | 0.00 | 75 | 1013.6 |
| 20260504021706 | 5 | 161 | 0.0 | 0.0 | 0.00 | 0.00 | 0.00 | 74 | 1013.6 |
| 20260504021203 | 5 | 161 | 0.0 | 0.0 | 0.00 | 0.00 | 0.00 | 73 | 1013.5 |
| 20260504020923 | 5 | 161 | 0.0 | 0.0 | 0.00 | 0.00 | 0.00 | 73 | 1013.5 |
| 20260504020200 | 5 | 161 | 0.0 | 0.0 | 0.00 | 0.00 | 0.00 | 72 | 1013.5 |
| 20260504015920 | 5 | 161 | 0.0 | 0.0 | 0.00 | 0.00 | 0.00 | 72 | 1013.4 |
| 20260504015156 | 6 | 161 | 0.0 | 0.0 | 0.00 | 0.00 | 0.00 | 70 | 1013.5 |
| 20260504014657 | 6 | 161 | 0.0 | 0.0 | 0.00 | 0.00 | 0.00 | 69 | 1013.4 |
| 20260504014640 | 6 | 161 | 0.0 | 0.0 | 0.00 | 0.00 | 0.00 | 68 | 1013.4 |
| 20260504013914 | 6 | 161 | 0.0 | 0.0 | 0.00 | 0.00 | 0.00 | 65 | 1013.4 |
| 20260504013414 | 7 | 161 | 0.0 | 0.0 | 0.00 | 0.00 | 0.00 | 67 | 1013.3 |
| 20260504012653 | 7 | 161 | 0.0 | 0.0 | 0.00 | 0.00 | 0.00 | 66 | 1013.4 |
| 20260504012152 | 7 | 161 | 0.0 | 0.0 | 0.00 | 0.00 | 0.00 | 62 | 1013.1 |
| 20260504011916 | 7 | 161 | 0.0 | 0.0 | 0.00 | 0.00 | 0.00 | 60 | 1013.1 |
| 20260504011151 | 7 | 161 | 0.0 | 0.0 | 0.00 | 0.00 | 0.00 | 60 | 1013.1 |
| 20260504010914 | 8 | 161 | 0.0 | 0.0 | 0.00 | 0.00 | 0.00 | 57 | 1013.1 |
| 20260504010147 | 8 | 161 | 0.0 | 0.0 | 0.00 | 0.00 | 0.00 | 57 | 1013.0 |
| 20260504005644 | 8 | 161 | 0.0 | 0.0 | 0.00 | 0.00 | 0.00 | 55 | 1013.1 |
| 20260504005145 | 8 | 161 | 0.0 | 0.0 | 0.00 | 0.00 | 0.00 | 54 | 1013.1 |
| 20260504005129 | 9 | 161 | 0.0 | 0.0 | 0.00 | 0.00 | 0.00 | 53 | 1013.1 |
| 20260504004143 | 9 | 161 | 0.0 | 0.0 | 0.00 | 0.00 | 0.00 | 51 | 1013.0 |
| 20260504003642 | 10 | 161 | 0.0 | 0.0 | 0.00 | 0.00 | 0.00 | 51 | 1013.0 |
| 20260504003139 | 10 | 161 | 0.0 | 0.0 | 0.00 | 0.00 | 0.00 | 50 | 1012.9 |
| 20260504002640 | 10 | 161 | 0.0 | 0.0 | 0.00 | 0.00 | 0.00 | 47 | 1012.9 |
| 20260504002139 | 10 | 161 | 0.0 | 0.0 | 0.00 | 0.00 | 0.00 | 46 | 1012.8 |
| 20260504001636 | 11 | 161 | 0.0 | 0.0 | 0.00 | 0.00 | 0.00 | 45 | 1012.8 |
| 20260504001138 | 11 | 161 | 0.0 | 0.0 | 0.00 | 0.00 | 0.00 | 44 | 1012.8 |
| 20260504000638 | 11 | 161 | 0.0 | 8.0 | 0.00 | 0.00 | 0.00 | 44 | 1012.8 |
| 20260504000627 | 11 | 161 | 0.0 | 8.0 | 0.00 | 0.00 | 0.00 | 44 | 1012.7 |
| 20260503235637 | 11 | 120 | 0.0 | 4.8 | 0.00 | 0.00 | 0.00 | 42 | 1012.8 |
| 20260503235139 | 11 | 129 | 0.0 | 4.8 | 0.00 | 0.00 | 0.00 | 42 | 1012.8 |
| 20260503234639 | 11 | 124 | 0.0 | 8.0 | 0.00 | 0.00 | 0.00 | 42 | 1012.7 |
| 20260503234136 | 12 | 109 | 0.0 | 8.0 | 0.00 | 0.00 | 0.00 | 41 | 1012.7 |
| 20260503233635 | 12 | 100 | 1.6 | 12.9 | 0.00 | 0.03 | 0.00 | 40 | 1012.8 |
| 20260503233133 | 12 | 132 | 1.6 | 12.9 | 0.00 | 0.03 | 0.00 | 40 | 1012.8 |
| 20260503232629 | 12 | 152 | 1.6 | 14.5 | 0.00 | 0.03 | 0.00 | 40 | 1012.8 |
| 20260503232129 | 12 | 227 | 3.2 | 14.5 | 0.00 | 0.03 | 0.00 | 39 | 1012.8 |
| 20260503231632 | 12 | 191 | 3.2 | 20.9 | 0.00 | 0.03 | 0.00 | 39 | 1012.8 |
| 20260503231353 | 12 | 105 | 3.2 | 20.9 | 0.00 | 0.03 | 0.00 | 39 | 1012.8 |
| 20260503230628 | 12 | 131 | 4.8 | 19.3 | 0.00 | 0.03 | 0.00 | 38 | 1012.8 |
| 20260503230127 | 12 | 128 | 3.2 | 16.1 | 0.00 | 0.03 | 0.00 | 38 | 1012.8 |
| 20260503225625 | 12 | 202 | 1.6 | 11.3 | 0.00 | 0.03 | 0.00 | 39 | 1012.8 |
| 20260503225126 | 12 | 323 | 1.6 | 12.9 | 0.00 | 0.03 | 0.00 | 40 | 1012.9 |
| 20260503224626 | 12 | 155 | 3.2 | 17.7 | 0.00 | 0.03 | 0.00 | 41 | 1012.7 |
| 20260503224128 | 12 | 209 | 3.2 | 22.5 | 0.00 | 0.03 | 0.00 | 38 | 1012.6 |
| 20260503223626 | 13 | 74 | 3.2 | 22.5 | 0.00 | 0.03 | 0.00 | 37 | 1012.7 |
| 20260503223127 | 13 | 117 | 1.6 | 22.5 | 0.00 | 0.03 | 0.00 | 39 | 1012.7 |
| 20260503222626 | 13 | 193 | 1.6 | 9.7 | 0.00 | 0.03 | 0.00 | 38 | 1012.6 |
| 20260503222615 | 13 | 130 | 1.6 | 11.3 | 0.00 | 0.03 | 0.00 | 41 | 1012.7 |
| 20260503221625 | 12 | 129 | 3.2 | 17.7 | 0.00 | 0.03 | 0.00 | 40 | 1012.7 |
| 20260503221351 | 13 | 205 | 4.8 | 19.3 | 0.00 | 0.03 | 0.00 | 38 | 1012.8 |
| 20260503220628 | 13 | 156 | 3.2 | 19.3 | 0.00 | 0.03 | 0.00 | 38 | 1012.9 |
| 20260503220125 | 13 | 128 | 4.8 | 16.1 | 0.00 | 0.03 | 0.00 | 38 | 1012.9 |
| 20260503220112 | 13 | 162 | 6.4 | 22.5 | 0.00 | 0.03 | 0.00 | 37 | 1012.9 |
| 20260503215125 | 12 | 156 | 6.4 | 22.5 | 0.00 | 0.03 | 0.00 | 39 | 1012.9 |
| 20260503214628 | 12 | 115 | 4.8 | 17.7 | 0.00 | 0.03 | 0.00 | 39 | 1012.9 |
| 20260503214128 | 13 | 129 | 4.8 | 22.5 | 0.00 | 0.03 | 0.00 | 39 | 1012.9 |
| 20260503213625 | 13 | 86 | 4.8 | 22.5 | 0.00 | 0.03 | 0.00 | 37 | 1012.9 |
| 20260503213125 | 13 | 132 | 3.2 | 16.1 | 0.00 | 0.03 | 0.00 | 39 | 1012.8 |
| 20260503212625 | 13 | 355 | 8.0 | 20.9 | 0.00 | 0.03 | 0.00 | 39 | 1012.8 |
| 20260503212125 | 13 | 146 | 9.7 | 25.7 | 0.00 | 0.03 | 0.00 | 37 | 1012.8 |
| 20260503211625 | 13 | 135 | 8.0 | 25.7 | 0.00 | 0.03 | 0.00 | 37 | 1012.7 |
| 20260503211345 | 13 | 130 | 6.4 | 22.5 | 0.00 | 0.03 | 0.00 | 40 | 1012.8 |
| 20260503210626 | 12 | 113 | 4.8 | 24.1 | 0.00 | 0.03 | 0.00 | 39 | 1012.7 |
| 20260503210129 | 12 | 180 | 4.8 | 27.4 | 0.00 | 0.03 | 0.00 | 39 | 1012.8 |
| 20260503205627 | 12 | 148 | 6.4 | 27.4 | 0.00 | 0.03 | 0.00 | 38 | 1012.8 |
| 20260503205126 | 12 | 166 | 4.8 | 19.3 | 0.00 | 0.03 | 0.00 | 38 | 1012.8 |
| 20260503204626 | 12 | 194 | 6.4 | 20.9 | 0.00 | 0.03 | 0.00 | 40 | 1012.8 |
| 20260503204338 | 13 | 74 | 6.4 | 24.1 | 0.00 | 0.03 | 0.00 | 37 | 1012.8 |
| 20260503204331 | 12 | 51 | 6.4 | 20.9 | 0.00 | 0.03 | 0.00 | 38 | 1012.8 |
| 20260503203125 | 12 | 184 | 6.4 | 24.1 | 0.00 | 0.03 | 0.00 | 39 | 1012.8 |
| 20260503202625 | 12 | 213 | 6.4 | 20.9 | 0.00 | 0.03 | 0.00 | 39 | 1012.9 |
| 20260503202125 | 12 | 182 | 6.4 | 17.7 | 0.00 | 0.03 | 0.00 | 40 | 1012.9 |
| 20260503201623 | 12 | 155 | 6.4 | 22.5 | 0.00 | 0.03 | 0.00 | 37 | 1013.0 |
| 20260503201125 | 13 | 111 | 6.4 | 27.4 | 0.00 | 0.03 | 0.00 | 38 | 1013.0 |
| 20260503200622 | 13 | 158 | 4.8 | 27.4 | 0.00 | 0.03 | 0.00 | 39 | 1013.0 |
| 20260503200119 | 12 | 166 | 4.8 | 16.1 | 0.00 | 0.03 | 0.00 | 38 | 1013.1 |
| 20260503195619 | 12 | 45 | 4.8 | 17.7 | 0.00 | 0.03 | 0.00 | 40 | 1013.4 |
| 20260503195118 | 12 | 190 | 3.2 | 17.7 | 0.00 | 0.03 | 0.00 | 38 | 1013.3 |
| 20260503195100 | 12 | 177 | 3.2 | 14.5 | 0.00 | 0.03 | 0.00 | 38 | 1013.4 |
| 20260503194115 | 12 | 156 | 6.4 | 19.3 | 0.00 | 0.03 | 0.00 | 38 | 1013.5 |
| 20260503193616 | 12 | 157 | 8.0 | 20.9 | 0.00 | 0.03 | 0.00 | 40 | 1013.6 |
| 20260503193115 | 12 | 209 | 4.8 | 20.9 | 0.00 | 0.03 | 0.00 | 36 | 1013.6 |
| 20260503192614 | 13 | 216 | 3.2 | 14.5 | 0.00 | 0.03 | 0.00 | 38 | 1013.5 |
| 20260503192333 | 13 | 153 | 4.8 | 14.5 | 0.00 | 0.03 | 0.00 | 38 | 1013.5 |
| 20260503191614 | 13 | 272 | 3.2 | 14.5 | 0.00 | 0.03 | 0.00 | 37 | 1013.7 |
| 20260503191338 | 13 | 124 | 3.2 | 11.3 | 0.00 | 0.03 | 0.00 | 37 | 1013.7 |
| 20260503190616 | 13 | 264 | 3.2 | 12.9 | 0.00 | 0.03 | 0.00 | 40 | 1013.8 |
| 20260503190111 | 12 | 59 | 4.8 | 17.7 | 0.00 | 0.03 | 0.00 | 40 | 1013.8 |
| 20260503185610 | 12 | 202 | 4.8 | 19.3 | 0.00 | 0.03 | 0.00 | 37 | 1013.9 |
| 20260503185109 | 12 | 176 | 6.4 | 19.3 | 0.00 | 0.03 | 0.00 | 38 | 1014.0 |
| 20260503184611 | 12 | 102 | 6.4 | 19.3 | 0.00 | 0.03 | 0.00 | 39 | 1014.1 |
| 20260503184109 | 12 | 242 | 8.0 | 22.5 | 0.00 | 0.03 | 0.00 | 37 | 1014.0 |
| 20260503183610 | 12 | 204 | 6.4 | 22.5 | 0.00 | 0.03 | 0.00 | 39 | 1014.2 |
| 20260503183109 | 12 | 184 | 6.4 | 20.9 | 0.00 | 0.03 | 0.00 | 41 | 1014.1 |
| 20260503182837 | 12 | 211 | 8.0 | 20.9 | 0.00 | 0.03 | 0.00 | 39 | 1014.3 |
| 20260503182332 | 12 | 212 | 4.8 | 20.9 | 0.00 | 0.03 | 0.00 | 38 | 1014.3 |
| 20260503181607 | 12 | 231 | 3.2 | 17.7 | 0.00 | 0.03 | 0.00 | 39 | 1014.1 |
| 20260503181109 | 12 | 98 | 3.2 | 17.7 | 0.00 | 0.03 | 0.00 | 39 | 1014.1 |
| 20260503180605 | 11 | 189 | 3.2 | 14.5 | 0.00 | 0.03 | 0.00 | 38 | 1014.1 |
| 20260503180105 | 11 | 123 | 3.2 | 16.1 | 0.00 | 0.03 | 0.00 | 41 | 1014.2 |
| 20260503175608 | 11 | 203 | 4.8 | 16.1 | 0.00 | 0.03 | 0.00 | 40 | 1014.2 |
| 20260503175101 | 12 | 171 | 4.8 | 20.9 | 0.00 | 0.03 | 0.00 | 39 | 1014.3 |
| 20260503174600 | 12 | 166 | 4.8 | 20.9 | 0.00 | 0.03 | 0.00 | 42 | 1014.3 |
| 20260503174056 | 11 | 187 | 4.8 | 19.3 | 0.00 | 0.03 | 0.00 | 41 | 1014.3 |
| 20260503173557 | 11 | 117 | 4.8 | 22.5 | 0.00 | 0.03 | 0.00 | 39 | 1014.4 |
| 20260503173057 | 11 | 218 | 3.2 | 22.5 | 0.00 | 0.03 | 0.00 | 41 | 1014.4 |
| 20260503172556 | 11 | 80 | 1.6 | 16.1 | 0.00 | 0.03 | 0.00 | 42 | 1014.3 |
| 20260503172108 | 11 | 201 | 4.8 | 17.7 | 0.00 | 0.03 | 0.00 | 41 | 1014.3 |
| 20260503171817 | 11 | 140 | 4.8 | 17.7 | 0.00 | 0.03 | 0.00 | 40 | 1014.4 |
| 20260503171053 | 11 | 167 | 3.2 | 12.9 | 0.00 | 0.03 | 0.00 | 41 | 1014.5 |
| 20260503170818 | 11 | 166 | 3.2 | 12.9 | 0.00 | 0.03 | 0.00 | 41 | 1014.5 |
| 20260503170108 | 11 | 186 | 4.8 | 16.1 | 0.00 | 0.03 | 0.00 | 42 | 1014.6 |
| 20260503150539 | 9 | 166 | 3.2 | 24.1 | 0.00 | 0.03 | 0.00 | 46 | 1015.7 |
| 20260503150531 | 8 | 227 | 6.4 | 24.1 | 0.00 | 0.03 | 0.00 | 52 | 1015.7 |
| 20260503131030 | 5 | 190 | 4.8 | 16.1 | 0.00 | 0.03 | 0.00 | 64 | 1016.0 |
| 20260503130525 | 5 | 167 | 3.2 | 14.5 | 0.00 | 0.03 | 0.00 | 64 | 1015.9 |
| 20260503110512 | -1 | 182 | 0.0 | 0.0 | 0.00 | 0.03 | 0.00 | 88 | 1015.5 |
| 20260503090439 | 0 | 181 | 0.0 | 0.0 | 0.00 | 0.03 | 0.00 | 83 | 1014.6 |
| 20260503081428 | 0 | 181 | 0.0 | 0.0 | 0.00 | 0.03 | 0.00 | 79 | 1014.5 |
| 20260503080926 | 0 | 181 | 0.0 | 0.0 | 0.00 | 0.03 | 0.00 | 79 | 1014.5 |
| 20260503080428 | 0 | 181 | 0.0 | 0.0 | 0.00 | 0.03 | 0.00 | 79 | 1014.5 |
| 20260503072922 | 1 | 181 | 0.0 | 0.0 | 0.00 | 0.03 | 0.00 | 80 | 1014.2 |
| 20260503072422 | 1 | 181 | 0.0 | 0.0 | 0.00 | 0.03 | 0.00 | 80 | 1014.2 |
| 20260503072147 | 1 | 181 | 0.0 | 0.0 | 0.00 | 0.03 | 0.00 | 79 | 1014.2 |
| 20260503071421 | 1 | 181 | 0.0 | 0.0 | 0.00 | 0.03 | 0.00 | 80 | 1014.2 |
| 20260503070921 | 1 | 181 | 0.0 | 0.0 | 0.00 | 0.03 | 0.00 | 79 | 1014.2 |
| 20260503070422 | 1 | 181 | 0.0 | 0.0 | 0.00 | 0.03 | 0.00 | 78 | 1014.2 |
| 20260503054921 | 1 | 181 | 0.0 | 0.0 | 0.00 | 0.03 | 0.00 | 74 | 1014.3 |
| 20260503054421 | 1 | 181 | 0.0 | 0.0 | 0.00 | 0.03 | 0.00 | 74 | 1014.2 |
| 20260503053921 | 1 | 181 | 0.0 | 0.0 | 0.00 | 0.03 | 0.00 | 72 | 1014.3 |
| 20260503053422 | 1 | 181 | 0.0 | 0.0 | 0.00 | 0.03 | 0.00 | 73 | 1014.3 |
| 20260503052922 | 1 | 181 | 0.0 | 0.0 | 0.00 | 0.03 | 0.00 | 73 | 1014.4 |
| 20260503052640 | 2 | 181 | 0.0 | 0.0 | 0.00 | 0.03 | 0.00 | 72 | 1014.4 |
| 20260503052143 | 2 | 181 | 0.0 | 3.2 | 0.00 | 0.03 | 0.00 | 72 | 1014.4 |
| 20260503051421 | 2 | 176 | 0.0 | 3.2 | 0.00 | 0.03 | 0.00 | 72 | 1014.5 |
| 20260503050922 | 2 | 176 | 0.0 | 0.0 | 0.00 | 0.03 | 0.00 | 73 | 1014.5 |
| 20260503050422 | 2 | 176 | 0.0 | 0.0 | 0.00 | 0.03 | 0.00 | 72 | 1014.5 |
| 20260503045922 | 2 | 176 | 0.0 | 0.0 | 0.00 | 0.03 | 0.00 | 72 | 1014.5 |
| 20260503045421 | 2 | 176 | 0.0 | 0.0 | 0.00 | 0.03 | 0.00 | 71 | 1014.5 |
| 20260503044922 | 2 | 176 | 0.0 | 0.0 | 0.00 | 0.03 | 0.00 | 70 | 1014.5 |
| 20260503044421 | 2 | 176 | 0.0 | 0.0 | 0.00 | 0.03 | 0.00 | 70 | 1014.5 |
| 20260503044142 | 3 | 176 | 0.0 | 1.6 | 0.00 | 0.03 | 0.00 | 69 | 1014.5 |
| 20260503043422 | 3 | 176 | 0.0 | 4.8 | 0.00 | 0.03 | 0.00 | 70 | 1014.5 |
| 20260503042920 | 3 | 176 | 0.0 | 4.8 | 0.00 | 0.03 | 0.00 | 69 | 1014.5 |
| 20260503042415 | 3 | 117 | 0.0 | 3.2 | 0.00 | 0.03 | 0.00 | 70 | 1014.5 |
| 20260503041908 | 3 | 117 | 0.0 | 3.2 | 0.00 | 0.03 | 0.00 | 70 | 1014.5 |
| 20260503041405 | 3 | 115 | 0.0 | 1.6 | 0.00 | 0.03 | 0.00 | 71 | 1014.6 |
| 20260503040859 | 3 | 115 | 0.0 | 1.6 | 0.00 | 0.03 | 0.00 | 70 | 1014.6 |
| 20260503040615 | 3 | 115 | 0.0 | 0.0 | 0.00 | 0.03 | 0.00 | 69 | 1014.6 |
| 20260503035846 | 3 | 115 | 0.0 | 0.0 | 0.00 | 0.03 | 0.03 | 71 | 1014.6 |
| 20260503035341 | 3 | 115 | 0.0 | 0.0 | 0.00 | 0.03 | 0.03 | 70 | 1014.6 |
| 20260503034833 | 3 | 115 | 0.0 | 0.0 | 0.00 | 0.05 | 0.03 | 70 | 1014.6 |
| 20260503034328 | 3 | 115 | 0.0 | 1.6 | 0.00 | 0.05 | 0.03 | 70 | 1014.5 |
| 20260503033821 | 3 | 115 | 0.0 | 1.6 | 0.00 | 0.05 | 0.03 | 70 | 1014.6 |
| 20260503033319 | 3 | 115 | 0.0 | 0.0 | 0.00 | 0.05 | 0.03 | 70 | 1014.6 |
| 20260503032810 | 3 | 115 | 0.0 | 0.0 | 0.00 | 0.05 | 0.03 | 70 | 1014.6 |
| 20260503032317 | 3 | 115 | 0.0 | 0.0 | 0.00 | 0.05 | 0.03 | 69 | 1014.7 |
| 20260503031759 | 3 | 115 | 0.0 | 0.0 | 0.00 | 0.05 | 0.03 | 70 | 1014.7 |
| 20260503031253 | 3 | 115 | 0.0 | 0.0 | 0.00 | 0.05 | 0.03 | 70 | 1014.8 |
| 20260503030747 | 3 | 115 | 0.0 | 0.0 | 0.00 | 0.05 | 0.03 | 72 | 1014.8 |